• In Latvia
  • List of Countries
  • For 7 days
  • Water Temperature
  • Satellite Maps
  • Weather Map
  • Weather Widgets
  • user-avatar
    Login

    Hourly Weather Escaldes-Engordany

    Today, 24 April, Monday

    Time Temperature Precipitation Wind Pressure Humidity
    00:00 +5°C° 0.1 mm 1 mps 638 mmHg 86%
    01:00 +5°C° 0 mm 1 mps 637 mmHg 87%
    02:00 +5°C° 0 mm 1 mps 637 mmHg 87%
    03:00 +4°C° 0 mm 1 mps 637 mmHg 87%
    04:00 +5°C° 0 mm 1 mps 637 mmHg 85%
    05:00 +6°C° 0 mm 1 mps 638 mmHg 83%
    06:00 +6°C° 0 mm 1 mps 638 mmHg 82%
    07:00 +9°C° 0 mm 1 mps 639 mmHg 71%
    08:00 +11°C° 0 mm 1 mps 640 mmHg 60%
    09:00 +14°C° 0 mm 1 mps 641 mmHg 49%
    10:00 +15°C° 0.1 mm 2 mps 641 mmHg 46%
    11:00 +15°C° 0.1 mm 2 mps 641 mmHg 44%
    12:00 +16°C° 0.1 mm 2 mps 641 mmHg 41%
    13:00 +16°C° 0.3 mm 2 mps 640 mmHg 42%
    14:00 +16°C° 0.3 mm 2 mps 640 mmHg 44%
    15:00 +16°C° 0.3 mm 2 mps 640 mmHg 45%
    16:00 +14°C° 0.5 mm 2 mps 639 mmHg 52%
    17:00 +13°C° 0.5 mm 2 mps 638 mmHg 59%
    18:00 +11°C° 0.5 mm 1 mps 638 mmHg 66%
    19:00 +9°C° 0.1 mm 1 mps 637 mmHg 71%
    20:00 +8°C° 0.1 mm 1 mps 637 mmHg 75%
    21:00 +6°C° 0.1 mm 1 mps 636 mmHg 79%
    22:00 +6°C° 0 mm 1 mps 636 mmHg 80%
    23:00 +5°C° 0 mm 1 mps 636 mmHg 80%

    Tomorrow, 25 April, Tuesday

    Time Temperature Precipitation Wind Pressure Humidity
    00:00 +5°C° 0 mm 1 mps 635 mmHg 81%
    01:00 +5°C° 0.1 mm 1 mps 635 mmHg 81%
    02:00 +5°C° 0.1 mm 1 mps 634 mmHg 80%
    03:00 +4°C° 0.1 mm 1 mps 634 mmHg 80%
    04:00 +5°C° 0 mm 1 mps 634 mmHg 77%
    05:00 +6°C° 0 mm 1 mps 634 mmHg 75%
    06:00 +6°C° 0 mm 1 mps 634 mmHg 73%
    07:00 +8°C° 0 mm 1 mps 635 mmHg 66%
    08:00 +9°C° 0 mm 2 mps 636 mmHg 60%
    09:00 +13°C° 0 mm 2 mps 636 mmHg 54%
    10:00 +12°C° 0.1 mm 3 mps 636 mmHg 54%
    11:00 +13°C° 0.1 mm 3 mps 636 mmHg 55%
    12:00 +13°C° 0.1 mm 3 mps 636 mmHg 55%
    13:00 +13°C° 0.5 mm 3 mps 635 mmHg 59%
    14:00 +13°C° 0.5 mm 3 mps 634 mmHg 63%
    15:00 +13°C° 0.5 mm 3 mps 634 mmHg 66%
    16:00 +11°C° 1.5 mm 3 mps 633 mmHg 74%
    17:00 +10°C° 1.5 mm 2 mps 633 mmHg 82%
    18:00 +8°C° 1.5 mm 2 mps 632 mmHg 90%
    19:00 +7°C° 1.2 mm 2 mps 632 mmHg 92%
    20:00 +6°C° 1.2 mm 2 mps 632 mmHg 95%
    21:00 +7°C° 1.2 mm 1 mps 632 mmHg 97%
    22:00 +5°C° 0.9 mm 2 mps 632 mmHg 97%
    23:00 +4°C° 0.9 mm 2 mps 632 mmHg 96%

    Day after tomorrow, 26 April, Wednesday

    Time Temperature Precipitation Wind Pressure Humidity
    00:00 +4°C° 0.9 mm 2 mps 632 mmHg 96%
    01:00 +3°C° 0.2 mm 2 mps 632 mmHg 95%
    02:00 +3°C° 0.2 mm 2 mps 632 mmHg 95%
    03:00 +3°C° 0.2 mm 2 mps 632 mmHg 95%
    04:00 +3°C° 0.1 mm 2 mps 632 mmHg 95%
    05:00 +3°C° 0.1 mm 2 mps 632 mmHg 95%
    06:00 +2°C° 0.1 mm 2 mps 632 mmHg 95%
    07:00 +3°C° 0.1 mm 2 mps 632 mmHg 91%
    08:00 +4°C° 0.1 mm 2 mps 633 mmHg 86%
    09:00 +5°C° 0.1 mm 2 mps 634 mmHg 82%
    10:00 +5°C° 0.3 mm 2 mps 634 mmHg 80%
    11:00 +5°C° 0.3 mm 2 mps 634 mmHg 77%
    12:00 +5°C° 0.3 mm 2 mps 634 mmHg 75%
    13:00 +4°C° 0.4 mm 3 mps 634 mmHg 72%
    14:00 +4°C° 0.4 mm 3 mps 634 mmHg 69%
    15:00 +5°C° 0.4 mm 3 mps 634 mmHg 67%
    16:00 +4°C° 0.2 mm 3 mps 634 mmHg 70%
    17:00 +3°C° 0.2 mm 3 mps 634 mmHg 74%
    18:00 +2°C° 0.2 mm 3 mps 633 mmHg 78%
    19:00 +1°C° 0.4 mm 3 mps 634 mmHg 80%
    20:00 -1°C° 0.4 mm 3 mps 634 mmHg 82%
    21:00 -2°C° 0.4 mm 3 mps 634 mmHg 85%
    22:00 -2°C° 0.4 mm 2 mps 634 mmHg 85%
    23:00 -2°C° 0.4 mm 2 mps 634 mmHg 84%

    27 April, Thursday

    Time Temperature Precipitation Wind Pressure Humidity
    00:00 -3°C° 0.4 mm 2 mps 634 mmHg 84%
    01:00 -3°C° 0.3 mm 2 mps 634 mmHg 84%
    02:00 -3°C° 0.3 mm 2 mps 634 mmHg 84%
    03:00 -4°C° 0.3 mm 2 mps 634 mmHg 84%
    04:00 -3°C° 0.1 mm 2 mps 634 mmHg 83%
    05:00 -3°C° 0.1 mm 2 mps 634 mmHg 82%
    06:00 -3°C° 0.1 mm 2 mps 635 mmHg 81%
    07:00 -2°C° 0.1 mm 2 mps 635 mmHg 75%
    08:00 -1°C° 0.1 mm 3 mps 636 mmHg 69%
    09:00 0°C° 0.1 mm 3 mps 636 mmHg 63%
    10:00 +1°C° 0 mm 3 mps 637 mmHg 60%
    11:00 +2°C° 0 mm 3 mps 637 mmHg 56%
    12:00 +4°C° 0 mm 3 mps 637 mmHg 52%
    13:00 +4°C° 0 mm 3 mps 637 mmHg 52%
    14:00 +4°C° 0 mm 3 mps 637 mmHg 52%
    15:00 +4°C° 0 mm 3 mps 637 mmHg 52%
    16:00 +3°C° 0 mm 3 mps 637 mmHg 57%
    17:00 +2°C° 0 mm 3 mps 637 mmHg 63%
    18:00 +1°C° 0 mm 2 mps 637 mmHg 68%
    19:00 -1°C° 0 mm 2 mps 637 mmHg 72%
    20:00 -2°C° 0 mm 3 mps 637 mmHg 75%
    21:00 -5°C° 0 mm 3 mps 637 mmHg 78%
    22:00 -5°C° 0 mm 3 mps 637 mmHg 78%
    23:00 -4°C° 0 mm 2 mps 637 mmHg 78%

    28 April, Friday

    Time Temperature Precipitation Wind Pressure Humidity
    00:00 -4°C° 0 mm 2 mps 637 mmHg 78%
    01:00 -4°C° 0 mm 2 mps 637 mmHg 78%
    02:00 -5°C° 0 mm 2 mps 637 mmHg 78%
    03:00 -5°C° 0 mm 2 mps 637 mmHg 78%
    04:00 -4°C° 0 mm 2 mps 637 mmHg 75%
    05:00 -4°C° 0 mm 2 mps 637 mmHg 72%
    06:00 -4°C° 0 mm 2 mps 638 mmHg 69%
    07:00 -1°C° 0 mm 2 mps 639 mmHg 61%
    08:00 +2°C° 0 mm 2 mps 639 mmHg 54%
    09:00 +5°C° 0 mm 2 mps 640 mmHg 46%
    10:00 +6°C° 0 mm 2 mps 640 mmHg 45%
    11:00 +7°C° 0 mm 2 mps 640 mmHg 44%
    12:00 +8°C° 0 mm 2 mps 640 mmHg 43%
    13:00 +8°C° 0 mm 2 mps 640 mmHg 43%
    14:00 +8°C° 0 mm 2 mps 640 mmHg 44%
    15:00 +8°C° 0 mm 2 mps 639 mmHg 45%
    16:00 +7°C° 0 mm 2 mps 639 mmHg 52%
    17:00 +6°C° 0 mm 2 mps 639 mmHg 59%
    18:00 +6°C° 0 mm 1 mps 638 mmHg 66%
    19:00 +4°C° 0 mm 1 mps 638 mmHg 74%
    20:00 +1°C° 0 mm 1 mps 637 mmHg 81%
    21:00 -1°C° 0 mm 1 mps 637 mmHg 89%
    22:00 -1°C° 0 mm 1 mps 636 mmHg 88%
    23:00 -2°C° 0 mm 1 mps 636 mmHg 88%

    29 April, Saturday

    Time Temperature Precipitation Wind Pressure Humidity
    00:00 -2°C° 0 mm 1 mps 636 mmHg 87%
    01:00 -2°C° 0 mm 1 mps 636 mmHg 87%
    02:00 -3°C° 0 mm 0 mps 635 mmHg 87%
    03:00 -4°C° 0 mm 0 mps 635 mmHg 86%
    04:00 -1°C° 0 mm 1 mps 636 mmHg 82%
    05:00 +1°C° 0 mm 1 mps 636 mmHg 77%
    06:00 +2°C° 0 mm 1 mps 637 mmHg 73%
    07:00 +4°C° 0 mm 1 mps 638 mmHg 65%
    08:00 +7°C° 0 mm 1 mps 638 mmHg 57%
    09:00 +8°C° 0 mm 2 mps 639 mmHg 49%
    10:00 +9°C° 0 mm 2 mps 639 mmHg 46%
    11:00 +10°C° 0 mm 2 mps 639 mmHg 43%
    12:00 +11°C° 0 mm 3 mps 639 mmHg 40%
    13:00 +11°C° 0 mm 3 mps 639 mmHg 40%
    14:00 +11°C° 0 mm 3 mps 638 mmHg 41%
    15:00 +12°C° 0 mm 3 mps 638 mmHg 41%
    16:00 +10°C° 0 mm 3 mps 637 mmHg 49%
    17:00 +8°C° 0 mm 3 mps 637 mmHg 58%
    18:00 +7°C° 0 mm 2 mps 636 mmHg 66%
    19:00 +5°C° 0 mm 2 mps 636 mmHg 74%
    20:00 +3°C° 0 mm 2 mps 635 mmHg 81%
    21:00 +2°C° 0 mm 1 mps 635 mmHg 89%
    22:00 +2°C° 0 mm 1 mps 635 mmHg 89%
    23:00 +2°C° 0 mm 1 mps 635 mmHg 89%
    Show more